Location: Pinon Hills
(34.4429°N, 117.6403°W)
Time: 20:35:59
(UTC-07:00)

Amateur Radio Satellites - All Passes

Search period start: 06 May 2015 20:05
Search period end: 07 May 2015 20:05
Location: Pinon Hills, 34.4429°N, 117.6403°W

Satellite Date Start Highest point End Downlink Frequencies (MHz)
Time Altitude Azimuth
Cosmos 2491 06 May 20:07:06 20:11:01 15° 81° (E) 20:15:40 435.465 / 435.565
COMPASS 1 06 May 20:08:46 20:11:13 16° 70° (ENE) 20:13:52 437.405
YUBILEINY 06 May 20:13:01 20:20:35 33° 73° (ENE) 20:28:19 435.215
O/OREOS (USA 219) 06 May 20:15:31 20:20:03 66° 291° (WNW) 20:24:35 437.305
CINEMA 3 06 May 20:25:14 20:28:17 18° 68° (ENE) 20:31:34 145.822/145.860
RS-15 06 May 20:29:38 20:39:40 34° 44° (NE) 20:50:20 29.354- 29.394
CUBEBUG 2 06 May 20:38:21 20:40:11 13° 67° (ENE) 20:42:17 437.445
AAUSAT CUBESAT 2 06 May 20:39:21 20:43:01 30° 73° (ENE) 20:46:45 437.432
SEEDS 06 May 20:52:16 20:56:30 67° 76° (ENE) 21:00:44 437.485
JUGNU 06 May 21:07:11 21:11:12 19° 176° (S) 21:15:15 437.505
DOVE 4 06 May 21:11:54 21:16:18 64° 260° (W) 21:21:00 437.250
BRITE-PL 06 May 21:16:22 21:19:44 22° 267° (W) 21:23:10 437.365/2234.400
CANX-2 06 May 21:22:29 21:26:30 37° 263° (W) 21:30:30 2200.000
STRAND 1 06 May 21:27:46 21:29:38 12° 295° (WNW) 21:31:12 437.568
CUTE 1.7 + AOD 2 06 May 21:29:45 21:33:41 34° 263° (W) 21:37:36 437.475
UKube-1 06 May 21:33:25 21:36:05 17° 69° (ENE) 21:38:55 .
GOMX 1 06 May 21:37:31 21:40:54 21° 268° (W) 21:44:21 467.674
SRMSAT 06 May 21:41:22 21:44:46 16° 170° (S) 21:48:13 437.500
COMPASS 1 06 May 21:42:44 21:46:39 36° 263° (W) 21:50:33 437.405
FUNcube-1 06 May 21:47:07 21:51:22 46° 74° (ENE) 21:55:43 145.935
Oscar 11 06 May 21:47:29 21:51:50 89° 257° (WSW) 21:56:13 145.826/435.025
HO-68 06 May 21:51:55 21:58:16 32° 264° (W) 22:04:30 435.675
AISAT 06 May 21:52:44 21:54:54 14° 68° (ENE) 21:57:18 437.250
50 SAT 06 May 21:54:48 21:56:45 14° 69° (ENE) 21:58:54 437.505
Cosmos 2491 06 May 21:58:08 22:06:53 89° 280° (W) 22:15:44 435.465 / 435.565
CINEMA 3 06 May 22:00:59 22:05:11 37° 263° (W) 22:09:34 145.822/145.860
DELFI C3 06 May 22:02:38 22:06:42 79° 258° (WSW) 22:10:47 145.870
HUMSAT D 06 May 22:06:49 22:10:41 35° 73° (ENE) 22:14:39 437.325/437.525
YUBILEINY 06 May 22:09:27 22:17:38 46° 270° (W) 22:25:40 435.215
UWE-3 06 May 22:11:17 22:15:45 71° 260° (W) 22:20:22 435.000/436.395/437.385
CUBEBUG 2 06 May 22:11:58 22:16:24 55° 261° (W) 22:20:59 437.445
AAUSAT CUBESAT 2 06 May 22:15:47 22:18:43 18° 267° (W) 22:21:30 437.432
ZACube-1 06 May 22:17:36 22:22:02 76° 259° (W) 22:26:36 437.345
Cosmos 2504 06 May 22:32:15 22:37:35 21° 68° (ENE) 22:43:02 435.465 / 435.565
CUBEBUG 1 06 May 22:33:42 22:36:32 18° 69° (ENE) 22:39:32 437.445
ANTELSAT 06 May 22:34:58 22:38:20 21° 93° (E) 22:41:47 437.575/2403.000
RS-15 06 May 22:41:32 22:53:11 72° 245° (WSW) 23:05:12 29.354- 29.394
DX 1 06 May 22:42:44 22:47:02 67° 259° (WSW) 22:51:21 434.975-435.025
DUCHIFAT 1 06 May 22:54:35 22:56:44 14° 92° (E) 22:59:04 145.980
JUGNU 06 May 22:55:37 22:59:34 18° 186° (S) 23:03:30 437.505
VELOX 1 06 May 23:03:44 23:08:08 89° 257° (WSW) 23:12:33 145.980
SPROUT 06 May 23:07:22 23:07:52 10° 67° (ENE) 23:08:40 437.525
UKube-1 06 May 23:08:01 23:11:59 35° 262° (W) 23:15:56 .
POLYITAN 1 06 May 23:08:34 23:11:53 22° 94° (E) 23:15:17 437.675
ESTCUBE 1 06 May 23:13:33 23:17:59 63° 75° (ENE) 23:22:26 437.505/2401.250
TIGRISAT 06 May 23:17:58 23:22:33 64° 100° (E) 23:27:01 435.000
QB50P1 06 May 23:19:18 23:23:02 29° 96° (E) 23:26:47 145.935-145.965
AIST 1 06 May 23:22:17 23:26:33 80° 96° (E) 23:30:49
TISAT 1 06 May 23:22:45 23:24:15 12° 68° (ENE) 23:25:58 437.305
BUGSAT 1 06 May 23:24:58 23:28:15 22° 95° (E) 23:31:38 437.445
FUNcube-1 06 May 23:25:42 23:28:00 13° 270° (W) 23:30:05 145.935
AISAT 06 May 23:26:57 23:31:09 44° 261° (W) 23:35:23 437.250
50 SAT 06 May 23:27:29 23:31:14 37° 262° (W) 23:35:00 437.505
UNISAT 6 06 May 23:28:05 23:32:43 87° 102° (ESE) 23:37:13 437.425
SRMSAT 06 May 23:29:05 23:33:17 20° 180° (S) 23:37:27 437.500
BEESAT 3 06 May 23:38:17 23:42:21 83° 297° (WNW) 23:46:29 437.485
HUMSAT D 06 May 23:43:49 23:46:36 16° 268° (W) 23:49:12 437.325/437.525
QB50P2 06 May 23:49:40 23:53:59 71° 100° (E) 23:58:16 145.880/145.840
BEESAT 2 06 May 23:56:23 00:00:26 64° 300° (WNW) 00:04:33 435.950
NANOSAT C BR1 06 May 23:58:37 00:02:57 89° 107° (ESE) 00:07:14 145.865
Cosmos 2491 07 May 00:00:11 00:05:13 15° 297° (WNW) 00:09:39 435.465 / 435.565
POPSAT HIP 1 07 May 00:07:51 00:12:09 71° 284° (WNW) 00:16:25 437.405
CUBEBUG 1 07 May 00:08:48 00:12:41 32° 263° (W) 00:16:34 437.445
ANTELSAT 07 May 00:11:07 00:15:11 30° 288° (WNW) 00:19:06 437.575/2403.000
Cosmos 2504 07 May 00:24:16 00:31:40 58° 268° (W) 00:38:40 435.465 / 435.565
DUCHIFAT 1 07 May 00:28:43 00:32:46 40° 286° (WNW) 00:36:45 145.980
AIST 2 07 May 00:37:51 00:42:06 79° 299° (WNW) 00:46:24 435.215
SPROUT 07 May 00:39:18 00:43:31 58° 260° (W) 00:47:45 437.525
ITUPSAT 1 07 May 00:39:48 00:42:24 15° 67° (ENE) 00:45:14 437.325
POLYITAN 1 07 May 00:44:08 00:47:46 26° 289° (WNW) 00:51:19 437.675
JUGNU 07 May 00:46:12 00:47:55 11° 195° (SSW) 00:49:30 437.505
QB50P1 07 May 00:55:33 00:58:44 20° 290° (WNW) 01:01:48 145.935-145.965
TISAT 1 07 May 00:55:36 00:59:39 47° 261° (W) 01:03:44 437.305
TIGRISAT 07 May 00:57:31 00:58:47 11° 294° (WNW) 00:59:45 435.000
RS-15 07 May 00:59:17 01:04:16 13° 259° (W) 01:07:56 29.354- 29.394
BUGSAT 1 07 May 01:00:10 01:03:40 25° 288° (WNW) 01:07:06 437.445
BEESAT 07 May 01:00:55 01:04:47 26° 70° (ENE) 01:08:47 436.000
SWISSCUBE 07 May 01:05:18 01:09:28 32° 71° (ENE) 01:13:42 437.505
SRMSAT 07 May 01:18:15 01:21:48 16° 190° (S) 01:25:17 437.500
CUSAT 1 07 May 01:41:54 01:48:15 25° 67° (ENE) 01:54:38 437.405
Oscar 19 07 May 01:58:36 02:03:38 49° 99° (E) 02:08:38 437.125/150
DANDE 07 May 02:02:41 02:09:40 29° 69° (ENE) 02:16:47 436.750
ITUPSAT 1 07 May 02:15:20 02:19:57 48° 260° (W) 02:24:34 437.325
KKS-1 07 May 02:19:45 02:23:35 30° 72° (ENE) 02:27:30 437.445
GONETS M04 07 May 02:33:36 02:42:20 61° 80° (E) 02:50:59
BEESAT 07 May 02:38:30 02:42:35 27° 264° (W) 02:46:33 436.000
STARS 07 May 02:43:00 02:46:55 33° 72° (ENE) 02:50:56 437.465
SWISSCUBE 07 May 02:43:39 02:47:22 22° 266° (W) 02:50:59 437.505
ITAMSAT 1 07 May 03:01:37 03:06:44 58° 100° (E) 03:11:52 435.822/435.867
Gurwin Techsat 1B 07 May 03:06:56 03:12:10 59° 100° (E) 03:17:24 435.225
CUSAT 1 07 May 03:23:25 03:31:43 68° 265° (W) 03:39:19 437.405
Oscar 19 07 May 03:39:11 03:42:38 18° 293° (WNW) 03:45:52 437.125/150
DANDE 07 May 03:45:03 03:53:27 61° 266° (W) 04:01:26 436.750
KKS-1 07 May 03:56:56 04:00:16 20° 266° (W) 04:03:30 437.445
Cosmos 2499 07 May 04:05:17 04:11:54 37° 75° (ENE) 04:18:22 435.465 / 435.565
MOZHAYETS 4 07 May 04:18:55 04:23:13 40° 74° (ENE) 04:27:33
STARS 07 May 04:20:27 04:23:30 18° 267° (W) 04:26:24 437.465
AO-7 07 May 04:21:12 04:29:01 44° 100° (E) 04:36:55 29.400- 29.500
GONETS M04 07 May 04:31:45 04:38:36 25° 275° (W) 04:45:03
HORYU 2 07 May 04:38:10 04:42:39 82° 283° (WNW) 04:47:05 437.375
ITAMSAT 1 07 May 04:42:52 04:45:49 15° 294° (WNW) 04:48:32 435.822/435.867
Gurwin Techsat 1B 07 May 04:48:37 04:51:43 15° 294° (WNW) 04:54:32 435.225
JAS-2 07 May 04:52:30 04:58:08 85° 101° (E) 05:03:21 435.910
O/OREOS (USA 219) 07 May 04:52:33 04:53:38 11° 55° (NE) 04:54:59 437.305
CUSAT 1 07 May 05:11:16 05:13:11 11° 280° (W) 05:14:18 437.405
PCSat 07 May 05:40:41 05:46:05 89° 287° (WNW) 05:51:34 145.827
CUTE-I 07 May 05:50:14 05:51:47 11° 89° (E) 05:53:42 437.470
ISS 07 May 05:53:39 05:54:52 12° 128° (SE) 05:56:14 145.825
MOZHAYETS 4 07 May 05:57:42 06:00:39 16° 268° (W) 06:03:23
Cosmos 2499 07 May 05:58:37 06:04:56 32° 272° (W) 06:10:54 435.465 / 435.565
Cubesat XI-IV 07 May 06:02:27 06:05:38 17° 92° (E) 06:09:05 437.490
M-CUBED/EXP-1 PRIME 07 May 06:11:01 06:15:38 48° 70° (ENE) 06:20:09 437.505
AO-7 07 May 06:14:12 06:21:42 38° 296° (WNW) 06:29:04 29.400- 29.500
PRISM 07 May 06:19:34 06:23:11 31° 72° (ENE) 06:26:51 437.425
O/OREOS (USA 219) 07 May 06:29:09 06:33:34 62° 253° (WSW) 06:37:57 437.305
CUBESAT XI-V 07 May 06:31:30 06:36:06 85° 76° (ENE) 06:40:43 437.345
AUBIESAT-1 07 May 06:40:43 06:45:31 90° 248° (WSW) 06:50:10 437.475
STRAND 1 07 May 06:58:08 07:03:12 72° 76° (ENE) 07:08:18 437.568
CUTE-I 07 May 07:27:08 07:32:26 70° 286° (WNW) 07:37:45 437.470
ISS 07 May 07:27:48 07:30:56 47° 321° (NW) 07:34:05 145.825
PCSat 07 May 07:28:08 07:30:23 12° 315° (NW) 07:32:22 145.827
Cubesat XI-IV 07 May 07:40:56 07:46:05 51° 287° (WNW) 07:51:14 437.490
BRITE-PL 07 May 07:45:57 07:49:03 16° 90° (E) 07:52:28 437.365/2234.400
M-CUBED/EXP-1 PRIME 07 May 07:47:42 07:50:40 16° 263° (W) 07:53:23 437.505
PRISM 07 May 07:56:01 07:58:45 16° 267° (W) 08:01:18 437.425
SO-50 07 May 07:58:37 08:02:54 40° 114° (ESE) 08:07:22 436.795
BEESAT 3 07 May 08:01:08 08:04:09 20° 51° (NE) 08:07:12 437.485
GOMX 1 07 May 08:04:57 08:07:48 15° 89° (E) 08:10:58 467.674
Cosmos 2491 07 May 08:13:25 08:21:27 39° 74° (ENE) 08:29:35 435.465 / 435.565
BEESAT 2 07 May 08:19:25 08:22:50 25° 53° (NE) 08:26:16 435.950
SEEDS 07 May 08:41:51 08:44:03 14° 91° (E) 08:46:26 437.485
STRAND 1 07 May 08:42:20 08:43:01 10° 271° (W) 08:43:18 437.568
AIST 2 07 May 09:03:34 09:06:56 23° 52° (NE) 09:10:20 435.215
YUBILEINY 07 May 09:09:03 09:17:07 44° 89° (E) 09:25:19 435.215
CANX-2 07 May 09:11:12 09:15:17 46° 99° (E) 09:19:21 2200.000
DOVE 4 07 May 09:14:12 09:19:21 49° 98° (E) 09:24:27 437.250
CUTE 1.7 + AOD 2 07 May 09:18:14 09:22:22 51° 99° (E) 09:26:29 437.475
HO-68 07 May 09:22:22 09:29:27 61° 102° (ESE) 09:36:31 435.675
BRITE-PL 07 May 09:22:26 09:27:56 62° 285° (WNW) 09:33:32 437.365/2234.400
COMPASS 1 07 May 09:29:35 09:33:34 44° 98° (E) 09:37:33 437.405
ANTELSAT 07 May 09:31:42 09:33:51 14° 67° (ENE) 09:36:15 437.575/2403.000
AIST 1 07 May 09:34:43 09:36:49 14° 72° (ENE) 09:39:08
BEESAT 3 07 May 09:38:36 09:42:12 30° 247° (WSW) 09:45:41 437.485
Oscar 11 07 May 09:39:14 09:42:30 21° 94° (E) 09:45:51 145.826/435.025
SO-50 07 May 09:40:02 09:43:38 21° 311° (NW) 09:47:14 436.795
GOMX 1 07 May 09:40:56 09:46:20 61° 285° (WNW) 09:51:44 467.674
FUNcube-1 07 May 09:41:28 09:43:01 12° 89° (E) 09:44:51 145.935
DELFI C3 07 May 09:46:40 09:49:21 18° 93° (E) 09:52:09 145.870
BEESAT 2 07 May 09:57:34 10:00:51 23° 248° (WSW) 10:04:01 435.950
CINEMA 3 07 May 09:58:59 10:04:02 71° 101° (E) 10:08:55 145.822/145.860
POLYITAN 1 07 May 10:00:24 10:01:32 11° 67° (ENE) 10:02:57 437.675
AAUSAT CUBESAT 2 07 May 10:00:49 10:05:00 85° 283° (WNW) 10:09:07 437.432
UWE-3 07 May 10:05:19 10:09:25 31° 96° (E) 10:13:29 435.000/436.395/437.385
CUBEBUG 2 07 May 10:06:53 10:11:22 41° 98° (E) 10:15:44 437.445
QB50P1 07 May 10:10:02 10:12:15 15° 69° (ENE) 10:14:40 145.935-145.965
Cosmos 2491 07 May 10:10:14 10:18:20 40° 271° (W) 10:26:14 435.465 / 435.565
ZACube-1 07 May 10:10:29 10:14:21 28° 95° (E) 10:18:12 437.345
TIGRISAT 07 May 10:13:02 10:17:15 37° 73° (ENE) 10:21:35 435.000
SEEDS 07 May 10:16:09 10:20:02 36° 286° (WNW) 10:23:52 437.485
UNISAT 6 07 May 10:23:08 10:27:36 50° 74° (ENE) 10:32:10 437.425
DX 1 07 May 10:35:03 10:38:44 27° 96° (E) 10:42:29 434.975-435.025
QB50P2 07 May 10:39:19 10:43:06 33° 73° (ENE) 10:46:57 145.880/145.840
AIST 2 07 May 10:41:55 10:45:30 27° 248° (WSW) 10:48:58 435.215
VERMONT LUNAR 07 May 10:42:17 10:45:27 52° 152° (SSE) 10:48:41 437.305
NANOSAT C BR1 07 May 10:47:44 10:51:40 40° 74° (ENE) 10:55:39 145.865
CANX-2 07 May 10:49:00 10:50:51 12° 292° (WNW) 10:52:28 2200.000
RS-15 07 May 10:51:48 10:59:29 24° 105° (ESE) 11:07:48 29.354- 29.394
DOVE 4 07 May 10:53:02 10:56:44 19° 292° (WNW) 11:00:13 437.250
CUTE 1.7 + AOD 2 07 May 10:56:27 10:57:53 11° 292° (WNW) 10:59:06 437.475
POPSAT HIP 1 07 May 10:56:59 11:01:05 52° 75° (ENE) 11:05:15 437.405
VELOX 1 07 May 10:58:29 11:01:59 23° 95° (E) 11:05:34 145.980
UKube-1 07 May 10:58:42 11:02:55 48° 100° (E) 11:07:07 .
ANTELSAT 07 May 11:05:39 11:10:11 53° 261° (W) 11:14:49 437.575/2403.000
Cosmos 2504 07 May 11:05:45 11:11:58 23° 85° (E) 11:18:26 435.465 / 435.565
YUBILEINY 07 May 11:06:08 11:14:05 36° 286° (WNW) 11:21:53 435.215
COMPASS 1 07 May 11:07:03 11:08:54 12° 292° (WNW) 11:10:32 437.405
50 SAT 07 May 11:08:00 11:11:33 31° 97° (E) 11:15:05 437.505
AIST 1 07 May 11:10:41 11:14:42 38° 267° (W) 11:18:42
ESTCUBE 1 07 May 11:10:57 11:13:51 17° 93° (E) 11:16:56 437.505/2401.250
HO-68 07 May 11:11:16 11:16:43 23° 297° (WNW) 11:21:54 435.675
Oscar 11 07 May 11:15:02 11:18:40 26° 288° (WNW) 11:22:14 145.826/435.025
FUNcube-1 07 May 11:15:20 11:19:45 51° 285° (WNW) 11:24:02 145.935
DUCHIFAT 1 07 May 11:17:06 11:21:18 88° 257° (WSW) 11:25:34 145.980
AISAT 07 May 11:21:04 11:25:21 44° 99° (E) 11:29:39 437.250
DELFI C3 07 May 11:21:05 11:24:31 27° 287° (WNW) 11:27:53 145.870
HUMSAT D 07 May 11:29:45 11:34:03 74° 282° (WNW) 11:38:15 437.325/437.525
POLYITAN 1 07 May 11:32:53 11:37:02 53° 260° (W) 11:41:14 437.675
CINEMA 3 07 May 11:38:45 11:40:39 12° 294° (WNW) 11:42:13 145.822/145.860
UWE-3 07 May 11:42:14 11:45:46 21° 290° (WNW) 11:49:06 435.000/436.395/437.385
QB50P1 07 May 11:43:50 11:47:49 39° 262° (W) 11:51:48 145.935-145.965
CUBEBUG 2 07 May 11:44:37 11:47:43 17° 292° (WNW) 11:50:35 437.445
BUGSAT 1 07 May 11:46:05 11:50:01 55° 260° (W) 11:54:00 437.445
ZACube-1 07 May 11:46:59 11:50:35 23° 290° (WNW) 11:54:01 437.345
PHONESAT 2.4 07 May 11:49:42 11:53:08 56° 152° (SSE) 11:56:36 2401.200-2431.200
TIGRISAT 07 May 11:50:54 11:54:09 18° 268° (W) 11:57:16 435.000
CUBEBUG 1 07 May 12:00:36 12:04:57 58° 100° (E) 12:09:18 437.445
UNISAT 6 07 May 12:02:22 12:04:44 13° 270° (W) 12:06:51 437.425
DX 1 07 May 12:11:26 12:14:52 22° 290° (WNW) 12:18:12 434.975-435.025
QB50P2 07 May 12:16:19 12:19:07 17° 267° (W) 12:21:46 145.880/145.840
VERMONT LUNAR 07 May 12:19:50 12:22:55 37° 347° (NNW) 12:26:03 437.305
NANOSAT C BR1 07 May 12:25:32 12:27:44 13° 269° (W) 12:29:44 145.865
SPROUT 07 May 12:29:48 12:33:38 31° 96° (E) 12:37:30 437.525
VELOX 1 07 May 12:34:45 12:38:31 27° 289° (WNW) 12:42:14 145.980
UKube-1 07 May 12:36:37 12:38:41 13° 293° (WNW) 12:40:31 .
POPSAT HIP 1 07 May 12:36:55 12:37:22 10° 270° (W) 12:37:29 437.405
50 SAT 07 May 12:43:38 12:46:06 16° 290° (WNW) 12:48:23 437.505
TISAT 1 07 May 12:43:46 12:47:38 33° 97° (E) 12:51:31 437.305
ESTCUBE 1 07 May 12:46:46 12:50:52 35° 287° (WNW) 12:54:56 437.505/2401.250
Cosmos 2504 07 May 12:56:03 13:04:51 67° 279° (W) 13:13:21 435.465 / 435.565
AISAT 07 May 12:59:01 13:01:37 15° 292° (WNW) 13:04:01 437.250
RS-15 07 May 13:00:00 13:10:54 75° 302° (WNW) 13:22:01 29.354- 29.394
Oscar 19 07 May 13:11:51 13:16:47 49° 73° (ENE) 13:21:49 437.125/150
SWISSCUBE 07 May 13:12:11 13:12:37 10° 89° (E) 13:13:25 437.505
PHONESAT 2.4 07 May 13:28:07 13:31:26 38° 347° (NNW) 13:34:48 2401.200-2431.200
CUBEBUG 1 07 May 13:39:34 13:40:53 11° 293° (WNW) 13:41:55 437.445
GONETS M04 07 May 13:40:34 13:42:35 11° 79° (E) 13:45:28
VERMONT LUNAR 07 May 13:57:52 14:00:46 27° 3° (N) 14:03:42 437.305
ISS 07 May 13:57:53 14:00:52 33° 37° (NE) 14:03:52 145.825
SPROUT 07 May 14:06:24 14:09:32 19° 290° (WNW) 14:12:31 437.525
ITAMSAT 1 07 May 14:16:03 14:21:07 62° 75° (ENE) 14:26:15 435.822/435.867
ITUPSAT 1 07 May 14:19:21 14:24:02 57° 100° (E) 14:28:44 437.325
TISAT 1 07 May 14:20:19 14:23:11 17° 290° (WNW) 14:25:55 437.305
Gurwin Techsat 1B 07 May 14:24:23 14:29:38 66° 75° (ENE) 14:34:55 435.225
PCSat 07 May 14:32:30 14:37:23 34° 56° (ENE) 14:42:18 145.827
BEESAT 07 May 14:41:25 14:46:12 80° 283° (WNW) 14:50:56 436.000
SWISSCUBE 07 May 14:46:17 14:51:00 64° 284° (WNW) 14:55:42 437.505
CUSAT 1 07 May 14:46:19 14:49:29 18° 83° (E) 14:53:29 437.405
Oscar 19 07 May 14:53:11 14:56:29 16° 269° (W) 14:59:33 437.125/150
Cosmos 2504 07 May 14:58:54 15:00:09 10° 299° (WNW) 15:00:31 435.465 / 435.565
JAS-2 07 May 14:59:25 15:05:45 30° 69° (ENE) 15:11:52 435.910
PHONESAT 2.4 07 May 15:06:57 15:10:07 30° 4° (N) 15:13:19 2401.200-2431.200
DANDE 07 May 15:11:38 15:14:59 22° 85° (E) 15:19:16 436.750
AO-7 07 May 15:16:22 15:23:59 44° 66° (ENE) 15:31:43 29.400- 29.500
RS-15 07 May 15:17:42 15:25:43 21° 328° (NNW) 15:33:31 29.354- 29.394
GONETS M04 07 May 15:29:29 15:38:14 78° 94° (E) 15:47:05
HORYU 2 07 May 15:32:41 15:37:06 58° 75° (ENE) 15:41:33 437.375
ISS 07 May 15:34:44 15:37:03 18° 231° (SW) 15:39:17 145.825
VERMONT LUNAR 07 May 15:35:13 15:38:31 59° 20° (NNE) 15:41:50 437.305
KKS-1 07 May 15:50:11 15:54:42 80° 283° (WNW) 15:59:10 437.445
ITAMSAT 1 07 May 15:58:46 16:01:08 13° 270° (W) 16:03:09 435.822/435.867
ITUPSAT 1 07 May 15:59:14 16:01:31 13° 294° (WNW) 16:03:33 437.325
Gurwin Techsat 1B 07 May 16:07:52 16:10:10 12° 271° (W) 16:12:06 435.225
STARS 07 May 16:12:04 16:16:31 73° 284° (WNW) 16:20:56 437.465
PCSat 07 May 16:16:08 16:20:41 27° 252° (WSW) 16:25:07 145.827
MOZHAYETS 4 07 May 16:19:35 16:21:20 12° 90° (E) 16:23:21
CUSAT 1 07 May 16:27:03 16:31:31 42° 287° (WNW) 16:37:23 437.405
SO-50 07 May 16:34:10 16:37:24 17° 47° (NE) 16:40:45 436.795
Cosmos 2499 07 May 16:36:05 16:43:50 38° 89° (E) 16:51:25 435.465 / 435.565
JAS-2 07 May 16:43:01 16:50:33 50° 261° (W) 16:57:32 435.910
PHONESAT 2.4 07 May 16:45:08 16:48:41 65° 21° (NNE) 16:52:13 2401.200-2431.200
DANDE 07 May 16:53:57 16:57:56 30° 291° (WNW) 17:02:59 436.750
CUTE-I 07 May 17:08:22 17:11:07 15° 66° (ENE) 17:14:08 437.470
AO-7 07 May 17:09:20 17:16:52 37° 262° (W) 17:24:16 29.400- 29.500
VERMONT LUNAR 07 May 17:12:57 17:15:45 24° 214° (SW) 17:18:31 437.305
HORYU 2 07 May 17:13:18 17:14:11 10° 270° (W) 17:14:44 437.375
Cubesat XI-IV 07 May 17:21:06 17:24:49 20° 68° (ENE) 17:28:43 437.490
GONETS M04 07 May 17:30:05 17:36:12 19° 294° (WNW) 17:41:51
RS-15 07 May 17:41:30 17:44:33 11° 4° (N) 17:47:45 29.354- 29.394
MOZHAYETS 4 07 May 17:54:30 17:58:55 50° 286° (WNW) 18:03:18
SO-50 07 May 18:13:30 18:18:22 57° 244° (WSW) 18:23:07 436.795
PHONESAT 2.4 07 May 18:23:45 18:26:42 24° 214° (SW) 18:29:37 2401.200-2431.200
Cosmos 2499 07 May 18:28:42 18:36:56 42° 284° (WNW) 18:44:39 435.465 / 435.565
CUBESAT XI-V 07 May 18:32:13 18:36:09 27° 95° (E) 18:40:09 437.345
CUTE-I 07 May 18:45:31 18:50:45 60° 259° (W) 18:56:01 437.470
O/OREOS (USA 219) 07 May 18:59:25 19:02:56 23° 103° (ESE) 19:06:34 437.305
Cubesat XI-IV 07 May 18:59:36 19:04:39 43° 261° (W) 19:09:42 437.490
JUGNU 07 May 19:05:10 19:07:51 13° 167° (SSE) 19:10:38 437.505
STRAND 1 07 May 19:12:39 19:17:10 32° 97° (E) 19:21:46 437.568
YUBILEINY 07 May 19:25:16 19:30:09 17° 64° (ENE) 19:35:35 435.215
M-CUBED/EXP-1 PRIME 07 May 19:31:29 19:35:06 60° 105° (ESE) 19:38:28 437.505
PRISM 07 May 19:40:10 19:44:17 88° 106° (ESE) 19:48:24 437.425
HO-68 07 May 19:47:35 19:53:40 32° 66° (ENE) 19:59:54 435.675
